This demonstration page uses our WeatherBlox Daily Observations layout. Learn more.

Left ArrowRight Arrow

Hourly Observations for March 10, 2015

Temp ( °F °C ) Dew Point ( °F °C ) Humidity (%) Winds ( mph kmh ) Pressure ( in mb ) Visibility ( mi km ) Precip ( " mm )
12:53 am 00:53 Clear 53 11.7 43 6.1 69 69 N 3 6 29.93 1014 10 16 0.00 0.00
1:53 am 01:53 Clear 50 10 42 5.6 74 74 NNE 3 6 29.93 1014 10 16 0.00 0.00
2:53 am 02:53 Clear 50 10 42 5.6 74 74 NNW 3 6 29.93 1014 10 16 0.00 0.00
3:53 am 03:53 Clear 48 8.9 42 5.6 80 80 N 3 6 29.93 1014 10 16 0.00 0.00
4:53 am 04:53 Clear 48 8.9 42 5.6 80 80 Calm 29.92 1013 10 16 0.00 0.00
5:53 am 05:53 Clear 47 8.3 42 5.6 83 83 Calm 29.93 1013 10 16 0.00 0.00
6:53 am 06:53 Clear 46 7.8 41 5 83 83 Calm 29.94 1014 10 16 0.00 0.00
7:53 am 07:53 Sunny 47 8.3 41 5 80 80 Calm 29.95 1014 10 16 0.00 0.00
8:53 am 08:53 Sunny 51 10.6 43 6.1 74 74 Calm 29.96 1015 10 16 0.00 0.00
9:53 am 09:53 Sunny 54 12.2 45 7.2 72 72 Calm 29.97 1015 10 16 0.00 0.00
10:53 am 10:53 Sunny 60 15.6 45 7.2 58 58 Calm 29.97 1015 10 16 0.00 0.00
11:53 am 11:53 Sunny 65 18.3 45 7.2 49 49 VRB 3 6 29.97 1015 10 16 0.00 0.00
12:53 pm 12:53 Sunny 68 20 46 7.8 45 45 Calm 29.96 1014 10 16 0.00 0.00
1:53 pm 13:53 Sunny 69 20.6 47 8.3 45 45 Calm 29.95 1014 10 16 0.00 0.00
2:53 pm 14:53 Sunny 69 20.6 48 8.9 47 47 Calm 29.93 1014 10 16 0.00 0.00
3:53 pm 15:53 Sunny 69 20.6 48 8.9 47 47 Calm 29.93 1013 10 16 0.00 0.00
4:53 pm 16:53 Sunny 68 20 49 9.4 51 51 Calm 29.91 1013 10 16 0.00 0.00
5:53 pm 17:53 Sunny 68 20 51 10.6 55 55 WNW 3 6 29.91 1013 10 16 0.00 0.00
6:53 pm 18:53 Sunny 65 18.3 52 11.1 63 63 Calm 29.91 1013 10 16 0.00 0.00
7:53 pm 19:53 Clear 63 17.2 52 11.1 68 68 Calm 29.91 1013 10 16 0.00 0.00
8:53 pm 20:53 Clear 61 16.1 52 11.1 72 72 WSW 3 6 29.94 1014 10 16 0.00 0.00
9:53 pm 21:53 Clear 59 15 53 11.7 81 81 NNE 3 6 29.93 1014 10 16 0.00 0.00
10:53 pm 22:53 Clear 59 15 52 11.1 78 78 Calm 29.94 1014 10 16 0.00 0.00
11:53 pm 23:53 Clear 58 14.4 52 11.1 81 81 Calm 29.94 1014 10 16 0.00 0.00

Powered by AerisWeather